| time (UTC) | temp F | wind direction | speed knots | gust knots | rain 1hr in | rain 24hr in | rain mn in | humidity % | barometer mb |
| 20260507073028 | 65 | 327 | 0.0 | 0.9 | 0.00 | 0.69 | 0.00 | 82 | 1015.1 |
| 20260507071529 | 65 | 330 | 0.0 | 0.9 | 0.00 | 0.69 | 0.00 | 82 | 1015.0 |
| 20260507070026 | 65 | 334 | 0.0 | 0.9 | 0.00 | 0.69 | 0.00 | 82 | 1015.5 |
| 20260507064525 | 65 | 332 | 0.0 | 0.0 | 0.00 | 0.69 | 0.00 | 82 | 1015.4 |
| 20260507063027 | 65 | 333 | 0.0 | 0.0 | 0.00 | 0.69 | 0.00 | 81 | 1015.4 |
| 20260507061524 | 65 | 330 | 0.0 | 0.0 | 0.00 | 0.69 | 0.00 | 81 | 1015.4 |
| 20260507060023 | 66 | 340 | 0.0 | 0.0 | 0.00 | 0.69 | 0.00 | 81 | 1015.0 |
| 20260507054521 | 66 | 340 | 0.0 | 0.0 | 0.00 | 0.69 | 0.00 | 81 | 1015.2 |
| 20260507053019 | 66 | 307 | 0.0 | 0.0 | 0.00 | 0.69 | 0.00 | 81 | 1015.2 |
| 20260507051517 | 66 | 339 | 0.0 | 1.7 | 0.00 | 0.69 | 0.00 | 81 | 1015.1 |
| 20260507050024 | 66 | 326 | 0.0 | 0.9 | 0.00 | 0.69 | 0.00 | 81 | 1015.1 |
| 20260507044512 | 67 | 326 | 0.0 | 0.9 | 0.00 | 0.69 | 0.69 | 80 | 1015.1 |
| 20260507043011 | 67 | 326 | 0.0 | 0.9 | 0.00 | 0.69 | 0.69 | 80 | 1014.8 |
| 20260507041509 | 67 | 313 | 0.0 | 1.7 | 0.00 | 0.69 | 0.69 | 80 | 1014.7 |
| 20260507040007 | 68 | 308 | 0.0 | 0.0 | 0.00 | 0.69 | 0.69 | 80 | 1014.9 |
| 20260507034507 | 68 | 335 | 0.0 | 0.9 | 0.00 | 0.69 | 0.69 | 80 | 1014.9 |
| 20260507033008 | 69 | 335 | 0.0 | 1.7 | 0.00 | 0.69 | 0.69 | 80 | 1014.5 |
| 20260507031501 | 69 | 306 | 0.0 | 0.0 | 0.00 | 0.69 | 0.69 | 80 | 1014.4 |
| 20260507030100 | 69 | 311 | 0.0 | 0.0 | 0.00 | 0.69 | 0.69 | 80 | 1013.9 |
| 20260507024557 | 70 | 10 | 0.0 | 0.0 | 0.00 | 0.69 | 0.69 | 80 | 1013.4 |
| 20260507023103 | 70 | 310 | 0.0 | 0.0 | 0.00 | 0.69 | 0.69 | 81 | 1013.1 |
| 20260507021550 | 70 | 311 | 0.0 | 0.0 | 0.00 | 0.69 | 0.69 | 81 | 1012.9 |
| 20260507020049 | 70 | 311 | 0.0 | 0.0 | 0.00 | 0.69 | 0.69 | 80 | 1012.6 |
| 20260507014551 | 70 | 311 | 0.0 | 0.9 | 0.00 | 0.69 | 0.69 | 81 | 1012.3 |
| 20260507013045 | 71 | 333 | 0.0 | 0.9 | 0.00 | 0.69 | 0.69 | 80 | 1012.1 |
| 20260507011543 | 72 | 330 | 0.0 | 1.7 | 0.00 | 0.69 | 0.69 | 81 | 1011.8 |
| 20260507010042 | 72 | 323 | 0.0 | 1.7 | 0.00 | 0.69 | 0.69 | 81 | 1011.7 |
| 20260507004536 | 73 | 312 | 0.0 | 0.0 | 0.00 | 0.69 | 0.69 | 81 | 1011.4 |
| 20260507003038 | 74 | 325 | 0.0 | 0.9 | 0.00 | 0.69 | 0.69 | 81 | 1011.1 |
| 20260507001532 | 74 | 326 | 0.0 | 1.7 | 0.00 | 0.69 | 0.69 | 81 | 1010.8 |
| 20260507000036 | 75 | 332 | 0.0 | 1.7 | 0.00 | 0.69 | 0.69 | 81 | 1010.7 |
| 20260506234528 | 76 | 336 | 0.9 | 2.6 | 0.00 | 0.69 | 0.69 | 81 | 1010.7 |
| 20260506233027 | 81 | 323 | 0.0 | 0.0 | 0.00 | 0.69 | 0.69 | 84 | 1010.2 |
| 20260506231527 | 81 | 214 | 0.0 | 0.0 | 0.00 | 0.69 | 0.69 | 83 | 1009.9 |
| 20260506230027 | 82 | 214 | 0.0 | 0.0 | 0.00 | 0.69 | 0.69 | 83 | 1009.9 |
| 20260506224526 | 82 | 214 | 0.0 | 0.0 | 0.00 | 0.69 | 0.69 | 82 | 1009.9 |
| 20260506223025 | 82 | 214 | 0.0 | 0.0 | 0.00 | 0.69 | 0.69 | 81 | 1009.8 |
| 20260506221524 | 83 | 213 | 0.0 | 0.0 | 0.00 | 0.69 | 0.69 | 81 | 1009.7 |
| 20260506220025 | 83 | 214 | 0.0 | 0.0 | 0.00 | 0.69 | 0.69 | 80 | 1009.6 |
| 20260506214522 | 84 | 213 | 0.0 | 0.0 | 0.00 | 0.69 | 0.69 | 81 | 1009.7 |
| 20260506213021 | 83 | 224 | 0.0 | 0.0 | 0.00 | 0.69 | 0.69 | 81 | 1009.8 |
| 20260506211521 | 83 | 142 | 0.0 | 1.7 | 0.00 | 0.69 | 0.69 | 82 | 1009.7 |
| 20260506210017 | 82 | 240 | 0.0 | 0.9 | 0.00 | 0.69 | 0.69 | 82 | 1009.9 |
| 20260506204523 | 83 | 259 | 0.0 | 0.9 | 0.00 | 0.69 | 0.69 | 83 | 1010.0 |
| 20260506203017 | 82 | 204 | 0.0 | 0.0 | 0.00 | 0.69 | 0.69 | 86 | 1010.2 |
| 20260506201516 | 81 | 204 | 0.0 | 0.0 | 0.00 | 0.69 | 0.69 | 87 | 1010.2 |
| 20260506200011 | 81 | 204 | 0.0 | 0.0 | 0.00 | 0.69 | 0.69 | 87 | 1010.6 |
| 20260506194520 | 81 | 204 | 0.0 | 0.0 | 0.00 | 0.69 | 0.69 | 86 | 1010.6 |
| 20260506193010 | 80 | 204 | 0.0 | 0.0 | 0.00 | 0.69 | 0.69 | 87 | 1010.6 |
| 20260506191511 | 80 | 204 | 0.0 | 0.0 | 0.00 | 0.69 | 0.69 | 87 | 1010.7 |
| 20260506190008 | 79 | 204 | 0.0 | 0.0 | 0.00 | 0.69 | 0.69 | 88 | 1010.9 |
| 20260506184507 | 78 | 204 | 0.0 | 0.0 | 0.00 | 0.69 | 0.69 | 88 | 1011.0 |
| 20260506183006 | 77 | 204 | 0.0 | 0.0 | 0.47 | 0.69 | 0.69 | 87 | 1011.3 |
| 20260506181505 | 77 | 204 | 0.0 | 0.0 | 0.69 | 0.69 | 0.69 | 86 | 1011.7 |
| 20260506180005 | 77 | 204 | 0.0 | 0.0 | 0.69 | 0.69 | 0.69 | 85 | 1012.0 |
| 20260506174504 | 78 | 204 | 0.0 | 0.0 | 0.69 | 0.69 | 0.69 | 84 | 1012.2 |
| 20260506173003 | 79 | 245 | 0.0 | 0.9 | 0.20 | 0.20 | 0.20 | 82 | 1012.6 |
| 20260506171504 | 81 | 251 | 0.0 | 0.0 | 0.00 | 0.00 | 0.00 | 81 | 1012.4 |
| 20260506170001 | 80 | 251 | 0.0 | 0.9 | 0.00 | 0.00 | 0.00 | 80 | 1012.6 |
| 20260506164500 | 81 | 134 | 0.0 | 0.9 | 0.00 | 0.00 | 0.00 | 80 | 1012.6 |
| 20260506163119 | 80 | 137 | 0.0 | 1.7 | 0.00 | 0.00 | 0.00 | 81 | 1012.4 |
| 20260506161611 | 80 | 125 | 0.0 | 1.7 | 0.00 | 0.00 | 0.00 | 81 | 1012.1 |
| 20260506160054 | 80 | 135 | 0.0 | 1.7 | 0.00 | 0.00 | 0.00 | 82 | 1012.0 |
| 20260506154609 | 79 | 217 | 0.0 | 3.5 | 0.00 | 0.00 | 0.00 | 82 | 1011.9 |
| 20260506153102 | 79 | 229 | 0.0 | 1.7 | 0.00 | 0.00 | 0.00 | 82 | 1011.9 |
| 20260506151555 | 79 | 130 | 0.0 | 0.0 | 0.00 | 0.00 | 0.00 | 83 | 1012.0 |
| 20260506150047 | 78 | 128 | 0.0 | 1.7 | 0.00 | 0.00 | 0.00 | 84 | 1011.6 |
| 20260506144545 | 0 | 0.0 | 0.0 | 0.00 | 0.00 | 0.00 | 1011.5 | ||
| 20260506143048 | 0 | 0.0 | 0.0 | 0.00 | 0.00 | 0.00 | 1011.2 | ||
| 20260506141537 | 0 | 0.0 | 0.0 | 0.00 | 0.00 | 0.00 | 1011.2 | ||
| 20260506140031 | 0 | 0.0 | 0.0 | 0.00 | 0.00 | 0.00 | 1011.2 | ||
| 20260506134526 | 0 | 0.0 | 0.0 | 0.00 | 0.00 | 0.00 | 1011.5 | ||
| 20260506133023 | 0 | 0.0 | 0.0 | 0.00 | 0.00 | 0.00 | 1011.6 | ||
| 20260506131520 | 0 | 0.0 | 0.0 | 0.00 | 0.00 | 0.00 | 1011.5 | ||
| 20260506130014 | 0 | 0.0 | 0.0 | 0.00 | 0.00 | 0.00 | 1011.5 | ||
| 20260506124509 | 0 | 0.0 | 0.0 | 0.00 | 0.00 | 0.00 | 1011.3 | ||
| 20260506123005 | 0 | 0.0 | 0.0 | 0.00 | 0.00 | 0.00 | 1011.2 | ||
| 20260506121600 | 0 | 0.0 | 0.0 | 0.00 | 0.00 | 0.00 | 1011.1 | ||
| 20260506120059 | 0 | 0.0 | 0.0 | 0.00 | 0.00 | 0.00 | 1011.1 | ||
| 20260506114559 | 0 | 0.0 | 0.0 | 0.00 | 0.00 | 0.00 | 1010.8 | ||
| 20260506113047 | 0 | 0.0 | 0.0 | 0.00 | 0.00 | 0.00 | 1010.9 | ||
| 20260506111543 | 0 | 0.0 | 0.0 | 0.00 | 0.00 | 0.00 | 1010.7 | ||
| 20260506110038 | 0 | 0.0 | 0.0 | 0.00 | 0.00 | 0.00 | 1010.3 | ||
| 20260506104534 | 0 | 0.0 | 0.0 | 0.00 | 0.00 | 0.00 | 1010.1 | ||
| 20260506103030 | 0 | 0.0 | 0.0 | 0.00 | 0.00 | 0.00 | 1009.9 | ||
| 20260506101529 | 0 | 0.0 | 0.0 | 0.00 | 0.00 | 0.00 | 1010.0 | ||
| 20260506100021 | 0 | 0.0 | 0.0 | 0.00 | 0.00 | 0.00 | 1010.0 | ||
| 20260506094517 | 76 | 141 | 1.7 | 6.1 | 0.00 | 0.00 | 0.00 | 84 | 1009.7 |
| 20260506093017 | 76 | 125 | 1.7 | 5.2 | 0.00 | 0.00 | 0.00 | 85 | 1009.6 |
| 20260506091517 | 76 | 235 | 0.0 | 3.5 | 0.00 | 0.00 | 0.00 | 85 | 1009.6 |
| 20260506090016 | 76 | 117 | 0.9 | 6.1 | 0.00 | 0.00 | 0.00 | 85 | 1009.5 |
| 20260506084514 | 76 | 179 | 0.0 | 2.6 | 0.00 | 0.00 | 0.00 | 84 | 1009.3 |
| 20260506083013 | 76 | 224 | 0.9 | 3.5 | 0.00 | 0.00 | 0.00 | 84 | 1009.6 |
| 20260506081510 | 76 | 155 | 0.0 | 4.3 | 0.00 | 0.00 | 0.00 | 84 | 1009.7 |